Content
SEND FEEDBACK

Daily
Averages
Monthly
Summary
Canada

BEDFORD, QUEBEC


Home > North America > Canada > Quebec
Elevation: 174 feet     Latitude: 45 28N     Longitude: 073 45W

WEATHER
 
SELECT A DAY
Number of Records: 201,481;   Date Range: 1/1/95 - 10/22/14
 
SHARE

PRINT THIS DATA

[ ← Previous Day ]
WEATHER ALMANAC - SEPTEMBER 21, 2013
[ Next Day → ]
[ °C ]   °F
Weather ElementAverageHighLow
Temperature65 °F69.8 °F (1:00 pm)60.8 °F (11:44 pm)
Dewpoint59.5 °F63 °F (8:00 pm)53.6 °F (1:00 am)
Humidity82.4 %95 % (8:00 pm)66 % (2:00 pm)
Barometer29.64 in29.82 in (1:00 am)29.56 in (11:00 pm)
Wind Speed10.3 mph19.6 mph (10:00 am)
Wind Gust23 mph (4:00 am)
Weather ElementAverage
Visibility11.6 mi
Wind DirectionSSW (201.4 °)

Weather ElementTotal
Precipitation---
Cooling Degree Days0.3 (Base 65)
Growing Degree Days15.3 (Base 50)
Averaged from 36 records on September 21, 2013
WEATHER CONDITIONS BREAKOUT
WIND DIRECTION BREAKOUT
WEATHER BY HOUR - SEPTEMBER 21, 2013
[ °C ]   °F
Local TimeTemperatureDewpointHumidityBarometerVisibilityWind DirectionWind SpeedGust SpeedPrecipitationEventsConditions
1:00 AM64.4 °F53.6 °F68 %29.82 in15.0 miSSE (150°)11.5 mphPartly Cloudy
2:00 AM64.4 °F53.6 °F68 %29.81 in15.0 miSSE (150°)11.5 mphPartly Cloudy
3:00 AM64.4 °F53.6 °F68 %29.79 in15.0 miSE (140°)15.0 mphPartly Cloudy
4:00 AM64.4 °F55.4 °F73 %29.77 in15.0 miSSE (150°)15.0 mph23.0 mphScattered Clouds
5:00 AM62.6 °F55.4 °F77 %29.75 in15.0 miSSE (150°)16.1 mphScattered Clouds
6:00 AM62.6 °F55.4 °F77 %29.73 in15.0 miSE (140°)17.3 mphPartly Cloudy
7:00 AM62.6 °F55.4 °F77 %29.72 in15.0 miSSE (150°)17.3 mph23.0 mphMostly Cloudy
8:00 AM63.0 °F56.0 °F70 %29.70 in15.0 miSSE (150°)18.4 mphOvercast
8:00 AM62.6 °F55.4 °F77 %29.70 in15.0 miSSE (150°)17.3 mph23.0 mphOvercast
9:00 AM64.4 °F57.2 °F77 %29.69 in15.0 miSSE (150°)17.3 mphOvercast
10:00 AM68.0 °F57.2 °F68 %29.67 in15.0 miSE (140°)19.6 mphMostly Cloudy
11:00 AM68.0 °F59.0 °F73 %29.66 in15.0 miSSE (150°)16.1 mphOvercast
12:00 PM68.0 °F59.0 °F73 %29.65 in12.0 miSSE (150°)9.2 mphOvercast
1:00 PM69.8 °F59.0 °F68 %29.63 in12.0 miSSE (150°)12.7 mph21.9 mphOvercast
1:43 PM69.8 °F60.8 °F73 %29.62 in12.0 miSouth (170°)9.2 mphRainLight Rain Showers
2:00 PM69.0 °F60.0 °F66 %29.61 in12.0 miSouth (180°)5.8 mphRainLight Rain Showers
2:00 PM69.8 °F60.8 °F73 %29.61 in12.0 miSouth (190°)5.8 mphOvercast
3:00 PM68.0 °F60.8 °F78 %29.59 in12.0 miWNW (290°)4.6 mphOvercast
4:00 PM66.2 °F62.6 °F88 %29.60 in12.0 miWNW (290°)9.2 mphOvercast
5:00 PM66.2 °F62.6 °F88 %29.58 in12.0 miWest (280°)4.6 mphOvercast
5:48 PM66.2 °F62.6 °F88 %29.59 in12.0 miWSW (250°)3.5 mphOvercast
6:00 PM66.2 °F62.6 °F88 %29.59 in12.0 miWSW (250°)6.9 mphOvercast
6:22 PM64.4 °F60.8 °F88 %29.59 in12.0 miWSW (240°)5.8 mphRainLight Rain Showers
6:46 PM64.4 °F62.6 °F94 %29.59 in10.0 miWSW (250°)8.1 mphOvercast
7:00 PM64.4 °F62.6 °F94 %29.59 in10.0 miWSW (240°)8.1 mphRainLight Rain Showers
7:10 PM64.4 °F62.6 °F94 %29.59 in8.0 miSW (230°)8.1 mphRainLight Rain Showers
7:20 PM64.4 °F62.6 °F94 %29.58 in12.0 miSW (230°)6.9 mphOvercast
7:36 PM64.4 °F62.6 °F94 %29.59 in12.0 miSSW (210°)5.8 mphRainLight Rain Showers
8:00 PM64.0 °F63.0 °F95 %29.59 in6.0 miSSW (210°)9.2 mphRainLight Rain Showers
8:00 PM64.4 °F62.6 °F94 %29.59 in6.0 miSW (220°)6.9 mphRainLight Rain Showers
8:11 PM64.4 °F62.6 °F94 %29.59 in4.0 miSSW (200°)9.2 mphRainLight Rain
9:00 PM62.6 °F60.8 °F94 %29.58 in4.0 miSW (230°)8.1 mphRainLight Rain
9:50 PM62.6 °F60.8 °F94 %29.57 in6.0 miWest (260°)4.6 mphRainLight Rain
10:00 PM62.6 °F60.8 °F94 %29.57 in8.0 miWest (260°)4.6 mphRainLight Rain
11:00 PM62.6 °F60.8 °F94 %29.56 in10.0 miWSW (240°)11.5 mph17.3 mphRainLight Rain
11:44 PM60.8 °F59.0 °F94 %29.57 in10.0 miWest (260°)9.2 mphRainLight Rain
Hourly data recorded from CYUL, located miles away from Bedford, Quebec







STORIES FROM OUR PARTNERS